| time (UTC) | temp C | wind direction | speed KPH | gust KPH | rain 1hr cm | rain 24hr cm | rain mn cm | humidity % | barometer mb |
| 20260906080022 | 31 | 182 | 4.8 | 8.0 | 0.00 | 0.00 | 0.00 | 59 | 1018.8 |
| 20260906075522 | 31 | 182 | 4.8 | 8.0 | 0.00 | 0.00 | 0.00 | 60 | 1018.7 |
| 20260906075021 | 31 | 159 | 4.8 | 8.0 | 0.00 | 0.00 | 0.00 | 60 | 1018.7 |
| 20260906074547 | 31 | 188 | 3.2 | 6.4 | 0.00 | 0.00 | 0.00 | 61 | 1018.7 |
| 20260906074024 | 31 | 186 | 4.8 | 9.7 | 0.00 | 0.00 | 0.00 | 61 | 1018.7 |
| 20260906073521 | 31 | 185 | 4.8 | 6.4 | 0.00 | 0.00 | 0.00 | 61 | 1018.8 |
| 20260906073045 | 31 | 186 | 3.2 | 9.7 | 0.00 | 0.00 | 0.00 | 62 | 1018.7 |
| 20260906072517 | 31 | 178 | 3.2 | 9.7 | 0.00 | 0.00 | 0.00 | 63 | 1018.7 |
| 20260906072027 | 31 | 151 | 3.2 | 6.4 | 0.00 | 0.00 | 0.00 | 63 | 1018.7 |
| 20260906071519 | 31 | 160 | 3.2 | 6.4 | 0.00 | 0.00 | 0.00 | 63 | 1018.7 |
| 20260906071020 | 30 | 186 | 3.2 | 8.0 | 0.00 | 0.00 | 0.00 | 64 | 1018.6 |
| 20260906070522 | 30 | 187 | 4.8 | 8.0 | 0.00 | 0.00 | 0.00 | 65 | 1018.6 |
| 20260906070019 | 30 | 187 | 4.8 | 8.0 | 0.00 | 0.00 | 0.00 | 65 | 1018.5 |
| 20260906065521 | 30 | 195 | 4.8 | 9.7 | 0.00 | 0.00 | 0.00 | 65 | 1018.4 |
| 20260906065019 | 30 | 180 | 4.8 | 8.0 | 0.00 | 0.00 | 0.00 | 66 | 1018.4 |
| 20260906064525 | 30 | 182 | 3.2 | 9.7 | 0.00 | 0.00 | 0.00 | 66 | 1018.4 |
| 20260906064046 | 30 | 187 | 4.8 | 9.7 | 0.00 | 0.00 | 0.00 | 67 | 1018.4 |
| 20260906063537 | 30 | 197 | 4.8 | 9.7 | 0.00 | 0.00 | 0.00 | 67 | 1018.3 |
| 20260906063018 | 30 | 186 | 4.8 | 8.0 | 0.00 | 0.00 | 0.00 | 68 | 1018.3 |
| 20260906062521 | 30 | 188 | 4.8 | 6.4 | 0.00 | 0.00 | 0.00 | 68 | 1018.3 |
| 20260906062025 | 30 | 180 | 3.2 | 4.8 | 0.00 | 0.00 | 0.00 | 68 | 1018.3 |
| 20260906061521 | 29 | 190 | 3.2 | 6.4 | 0.00 | 0.00 | 0.00 | 69 | 1018.3 |
| 20260906061022 | 29 | 185 | 3.2 | 6.4 | 0.00 | 0.00 | 0.00 | 69 | 1018.2 |
| 20260906060520 | 29 | 187 | 4.8 | 8.0 | 0.00 | 0.00 | 0.00 | 70 | 1018.2 |
| 20260906060044 | 29 | 190 | 4.8 | 8.0 | 0.00 | 0.00 | 0.00 | 71 | 1018.2 |
| 20260906055526 | 28 | 198 | 4.8 | 9.7 | 0.00 | 0.00 | 0.00 | 72 | 1018.1 |
| 20260906055017 | 28 | 197 | 4.8 | 8.0 | 0.00 | 0.00 | 0.00 | 72 | 1018.1 |
| 20260906054525 | 28 | 185 | 3.2 | 9.7 | 0.00 | 0.00 | 0.00 | 72 | 1018.0 |
| 20260906054018 | 28 | 179 | 3.2 | 6.4 | 0.00 | 0.00 | 0.00 | 73 | 1018.0 |
| 20260906053539 | 28 | 188 | 4.8 | 8.0 | 0.00 | 0.00 | 0.00 | 73 | 1018.1 |
| 20260906053025 | 28 | 200 | 3.2 | 6.4 | 0.00 | 0.00 | 0.00 | 74 | 1018.0 |
| 20260906052525 | 28 | 186 | 3.2 | 6.4 | 0.00 | 0.00 | 0.00 | 74 | 1017.9 |
| 20260906052023 | 27 | 182 | 1.6 | 6.4 | 0.00 | 0.00 | 0.00 | 74 | 1017.9 |
| 20260906051518 | 27 | 175 | 1.6 | 6.4 | 0.00 | 0.00 | 0.00 | 74 | 1018.0 |
| 20260906051016 | 27 | 184 | 1.6 | 3.2 | 0.00 | 0.00 | 0.00 | 74 | 1017.9 |
| 20260906050556 | 27 | 191 | 3.2 | 6.4 | 0.00 | 0.00 | 0.00 | 74 | 1017.8 |
| 20260906050020 | 27 | 191 | 1.6 | 4.8 | 0.00 | 0.00 | 0.00 | 75 | 1017.8 |
| 20260906045517 | 27 | 171 | 1.6 | 3.2 | 0.00 | 0.00 | 0.00 | 75 | 1017.8 |
| 20260906045102 | 27 | 176 | 1.6 | 4.8 | 0.00 | 0.00 | 0.00 | 74 | 1017.7 |
| 20260906044538 | 27 | 192 | 3.2 | 6.4 | 0.00 | 0.00 | 0.00 | 74 | 1017.7 |
| 20260906044037 | 27 | 207 | 1.6 | 6.4 | 0.00 | 0.00 | 0.00 | 74 | 1017.7 |
| 20260906043518 | 27 | 177 | 1.6 | 4.8 | 0.00 | 0.00 | 0.00 | 74 | 1017.6 |
| 20260906043026 | 27 | 168 | 1.6 | 3.2 | 0.00 | 0.00 | 0.00 | 74 | 1017.6 |
| 20260906042523 | 27 | 186 | 1.6 | 6.4 | 0.00 | 0.00 | 0.00 | 74 | 1017.7 |
| 20260906042042 | 27 | 191 | 3.2 | 6.4 | 0.00 | 0.00 | 0.00 | 74 | 1017.8 |
| 20260906041521 | 27 | 188 | 0.0 | 4.8 | 0.00 | 0.00 | 0.00 | 74 | 1017.8 |
| 20260906041044 | 27 | 177 | 1.6 | 6.4 | 0.00 | 0.00 | 0.00 | 74 | 1017.7 |
| 20260906040524 | 27 | 183 | 3.2 | 4.8 | 0.00 | 0.00 | 0.00 | 74 | 1017.7 |
| 20260906040019 | 27 | 186 | 1.6 | 4.8 | 0.00 | 0.00 | 0.00 | 74 | 1017.6 |
| 20260906035521 | 27 | 189 | 1.6 | 6.4 | 0.00 | 0.00 | 0.00 | 74 | 1017.6 |
| 20260906035019 | 27 | 197 | 3.2 | 6.4 | 0.00 | 0.00 | 0.00 | 74 | 1017.5 |
| 20260906034523 | 27 | 195 | 3.2 | 9.7 | 0.00 | 0.00 | 0.00 | 74 | 1017.6 |
| 20260906034019 | 27 | 181 | 3.2 | 6.4 | 0.00 | 0.00 | 0.00 | 74 | 1017.5 |
| 20260906033525 | 27 | 192 | 3.2 | 6.4 | 0.00 | 0.00 | 0.00 | 74 | 1017.5 |
| 20260906033025 | 27 | 172 | 0.0 | 3.2 | 0.00 | 0.00 | 0.00 | 74 | 1017.5 |
| 20260906032546 | 27 | 186 | 3.2 | 4.8 | 0.00 | 0.00 | 0.00 | 74 | 1017.5 |
| 20260906032042 | 27 | 201 | 1.6 | 6.4 | 0.00 | 0.00 | 0.00 | 74 | 1017.4 |
| 20260906031522 | 27 | 170 | 1.6 | 4.8 | 0.00 | 0.00 | 0.00 | 73 | 1017.3 |
| 20260906031046 | 27 | 189 | 3.2 | 9.7 | 0.00 | 0.00 | 0.00 | 73 | 1017.3 |
| 20260906030521 | 27 | 188 | 0.0 | 3.2 | 0.00 | 0.00 | 0.00 | 73 | 1017.4 |
| 20260906030022 | 27 | 178 | 1.6 | 4.8 | 0.00 | 0.00 | 0.00 | 73 | 1017.5 |
| 20260906025541 | 27 | 199 | 3.2 | 6.4 | 0.00 | 0.00 | 0.00 | 74 | 1017.5 |
| 20260906025019 | 27 | 202 | 3.2 | 6.4 | 0.00 | 0.00 | 0.00 | 74 | 1017.5 |
| 20260906024520 | 27 | 198 | 3.2 | 8.0 | 0.00 | 0.00 | 0.00 | 73 | 1017.5 |
| 20260906024024 | 27 | 127 | 1.6 | 3.2 | 0.00 | 0.00 | 0.00 | 73 | 1017.6 |
| 20260906023528 | 27 | 184 | 3.2 | 6.4 | 0.00 | 0.00 | 0.00 | 73 | 1017.6 |
| 20260906023017 | 27 | 183 | 1.6 | 4.8 | 0.00 | 0.00 | 0.00 | 73 | 1017.6 |
| 20260906022523 | 27 | 200 | 3.2 | 6.4 | 0.00 | 0.00 | 0.00 | 73 | 1017.7 |
| 20260906022023 | 27 | 183 | 3.2 | 4.8 | 0.00 | 0.00 | 0.00 | 73 | 1017.7 |
| 20260906021517 | 27 | 195 | 1.6 | 4.8 | 0.00 | 0.00 | 0.00 | 73 | 1017.7 |
| 20260906021025 | 27 | 186 | 1.6 | 3.2 | 0.00 | 0.00 | 0.00 | 73 | 1017.7 |
| 20260906020525 | 27 | 189 | 1.6 | 6.4 | 0.00 | 0.00 | 0.00 | 73 | 1017.7 |
| 20260906020026 | 27 | 186 | 3.2 | 6.4 | 0.00 | 0.00 | 0.00 | 73 | 1017.6 |
| 20260906015519 | 27 | 203 | 1.6 | 6.4 | 0.00 | 0.00 | 0.00 | 73 | 1017.7 |
| 20260906015017 | 27 | 156 | 1.6 | 6.4 | 0.00 | 0.00 | 0.00 | 73 | 1017.7 |
| 20260906014519 | 27 | 196 | 3.2 | 6.4 | 0.00 | 0.00 | 0.00 | 74 | 1017.7 |
| 20260906014016 | 27 | 185 | 3.2 | 6.4 | 0.00 | 0.00 | 0.00 | 74 | 1017.6 |
| 20260906013542 | 27 | 176 | 1.6 | 3.2 | 0.00 | 0.00 | 0.00 | 74 | 1017.5 |
| 20260906012523 | 27 | 198 | 3.2 | 9.7 | 0.00 | 0.00 | 0.00 | 74 | 1017.7 |
| 20260906012025 | 27 | 183 | 1.6 | 4.8 | 0.00 | 0.00 | 0.00 | 74 | 1017.6 |
| 20260906011521 | 27 | 188 | 3.2 | 8.0 | 0.00 | 0.00 | 0.00 | 74 | 1017.6 |
| 20260906011024 | 27 | 194 | 1.6 | 4.8 | 0.00 | 0.00 | 0.00 | 74 | 1017.7 |
| 20260906010519 | 27 | 213 | 1.6 | 6.4 | 0.00 | 0.00 | 0.00 | 74 | 1017.7 |
| 20260906010046 | 27 | 190 | 3.2 | 6.4 | 0.00 | 0.00 | 0.00 | 74 | 1017.7 |
| 20260906005518 | 27 | 195 | 1.6 | 4.8 | 0.00 | 0.00 | 0.00 | 74 | 1017.6 |
| 20260906005018 | 27 | 178 | 1.6 | 6.4 | 0.00 | 0.00 | 0.00 | 74 | 1017.6 |
| 20260906004522 | 27 | 183 | 0.0 | 3.2 | 0.00 | 0.00 | 0.00 | 75 | 1017.7 |
| 20260906004020 | 27 | 143 | 1.6 | 6.4 | 0.00 | 0.00 | 0.00 | 75 | 1017.7 |
| 20260906003537 | 27 | 191 | 1.6 | 4.8 | 0.00 | 0.00 | 0.00 | 75 | 1017.7 |
| 20260906003022 | 27 | 181 | 1.6 | 3.2 | 0.00 | 0.00 | 0.00 | 75 | 1017.7 |
| 20260906002522 | 27 | 180 | 1.6 | 3.2 | 0.00 | 0.00 | 0.00 | 75 | 1017.7 |
| 20260906002023 | 27 | 178 | 1.6 | 4.8 | 0.00 | 0.00 | 0.00 | 74 | 1017.6 |
| 20260906001542 | 27 | 166 | 1.6 | 3.2 | 0.00 | 0.00 | 0.00 | 74 | 1017.7 |
| 20260906001018 | 27 | 7 | 3.2 | 11.3 | 0.00 | 0.00 | 0.00 | 74 | 1017.7 |
| 20260906000524 | 27 | 74 | 1.6 | 6.4 | 0.00 | 0.00 | 0.00 | 74 | 1017.7 |
| 20260906000020 | 27 | 1 | 1.6 | 9.7 | 0.00 | 0.00 | 0.00 | 74 | 1017.8 |
| 20260905235523 | 27 | 181 | 1.6 | 4.8 | 0.00 | 0.00 | 0.00 | 74 | 1017.9 |
| 20260905235019 | 27 | 180 | 0.0 | 3.2 | 0.00 | 0.00 | 0.00 | 74 | 1018.0 |
| 20260905234516 | 27 | 31 | 1.6 | 6.4 | 0.00 | 0.00 | 0.00 | 74 | 1018.0 |
| 20260905234023 | 28 | 176 | 1.6 | 4.8 | 0.00 | 0.00 | 0.00 | 73 | 1017.9 |
| 20260905233522 | 28 | 152 | 1.6 | 4.8 | 0.00 | 0.00 | 0.00 | 73 | 1018.0 |
| 20260905233020 | 28 | 188 | 1.6 | 4.8 | 0.00 | 0.00 | 0.00 | 73 | 1018.1 |
| 20260905232521 | 28 | 146 | 1.6 | 4.8 | 0.00 | 0.00 | 0.00 | 73 | 1018.2 |
| 20260905232018 | 28 | 102 | 1.6 | 3.2 | 0.00 | 0.00 | 0.00 | 73 | 1018.1 |
| 20260905231523 | 28 | 13 | 1.6 | 6.4 | 0.00 | 0.00 | 0.00 | 73 | 1018.1 |
| 20260905231019 | 28 | 13 | 1.6 | 8.0 | 0.00 | 0.00 | 0.00 | 72 | 1018.2 |
| 20260905230518 | 28 | 14 | 1.6 | 4.8 | 0.00 | 0.00 | 0.00 | 72 | 1018.3 |
| 20260905230023 | 28 | 19 | 1.6 | 6.4 | 0.00 | 0.00 | 0.00 | 72 | 1018.3 |
| 20260905225525 | 28 | 5 | 1.6 | 6.4 | 0.00 | 0.00 | 0.00 | 72 | 1018.3 |
| 20260905225021 | 28 | 181 | 0.0 | 6.4 | 0.00 | 0.00 | 0.00 | 72 | 1018.3 |
| 20260905224542 | 28 | 158 | 1.6 | 3.2 | 0.00 | 0.00 | 0.00 | 71 | 1018.3 |
| 20260905224016 | 28 | 167 | 0.0 | 3.2 | 0.00 | 0.00 | 0.00 | 71 | 1018.2 |
| 20260905223526 | 28 | 181 | 3.2 | 6.4 | 0.00 | 0.00 | 0.00 | 71 | 1018.3 |
| 20260905223017 | 28 | 194 | 1.6 | 3.2 | 0.00 | 0.00 | 0.00 | 71 | 1018.4 |
| 20260905222525 | 28 | 192 | 3.2 | 6.4 | 0.00 | 0.00 | 0.00 | 71 | 1018.4 |
| 20260905222019 | 28 | 185 | 1.6 | 3.2 | 0.00 | 0.00 | 0.00 | 71 | 1018.4 |
| 20260905221524 | 28 | 165 | 1.6 | 3.2 | 0.00 | 0.00 | 0.00 | 70 | 1018.3 |
| 20260905221037 | 28 | 177 | 0.0 | 3.2 | 0.00 | 0.00 | 0.00 | 70 | 1018.3 |
| 20260905220524 | 28 | 193 | 0.0 | 3.2 | 0.00 | 0.00 | 0.00 | 70 | 1018.3 |
| 20260905220047 | 28 | 158 | 0.0 | 1.6 | 0.00 | 0.00 | 0.00 | 70 | 1018.4 |
| 20260905215522 | 28 | 180 | 0.0 | 1.6 | 0.00 | 0.00 | 0.00 | 70 | 1018.3 |
| 20260905215021 | 28 | 158 | 0.0 | 1.6 | 0.00 | 0.00 | 0.00 | 69 | 1018.3 |
| 20260905214523 | 28 | 183 | 0.0 | 3.2 | 0.00 | 0.00 | 0.00 | 69 | 1018.3 |
| 20260905214023 | 28 | 195 | 0.0 | 3.2 | 0.00 | 0.00 | 0.00 | 69 | 1018.4 |
| 20260905213523 | 28 | 190 | 1.6 | 6.4 | 0.00 | 0.00 | 0.00 | 69 | 1018.3 |
| 20260905213048 | 28 | 191 | 1.6 | 6.4 | 0.00 | 0.00 | 0.00 | 69 | 1018.3 |
| 20260905212519 | 28 | 199 | 1.6 | 3.2 | 0.00 | 0.00 | 0.00 | 69 | 1018.3 |
| 20260905212022 | 28 | 177 | 1.6 | 6.4 | 0.00 | 0.00 | 0.00 | 69 | 1018.4 |
| 20260905211525 | 28 | 187 | 3.2 | 6.4 | 0.00 | 0.00 | 0.00 | 69 | 1018.6 |
| 20260905211025 | 28 | 174 | 1.6 | 4.8 | 0.00 | 0.00 | 0.00 | 69 | 1018.5 |
| 20260905210544 | 28 | 190 | 1.6 | 6.4 | 0.00 | 0.00 | 0.00 | 69 | 1018.5 |
| 20260905210023 | 28 | 186 | 1.6 | 3.2 | 0.00 | 0.00 | 0.00 | 69 | 1018.4 |
| 20260905205523 | 28 | 189 | 1.6 | 6.4 | 0.00 | 0.00 | 0.00 | 69 | 1018.4 |
| 20260905205025 | 28 | 179 | 1.6 | 4.8 | 0.00 | 0.00 | 0.00 | 69 | 1018.4 |
| 20260905204523 | 28 | 197 | 1.6 | 6.4 | 0.00 | 0.00 | 0.00 | 69 | 1018.4 |
| 20260905204035 | 28 | 177 | 1.6 | 4.8 | 0.00 | 0.00 | 0.00 | 69 | 1018.4 |
| 20260905203517 | 28 | 183 | 1.6 | 4.8 | 0.00 | 0.00 | 0.00 | 70 | 1018.4 |
| 20260905203017 | 28 | 183 | 1.6 | 4.8 | 0.00 | 0.00 | 0.00 | 70 | 1018.4 |
| 20260905202522 | 28 | 185 | 3.2 | 4.8 | 0.00 | 0.00 | 0.00 | 70 | 1018.4 |
| 20260905202020 | 28 | 177 | 1.6 | 3.2 | 0.00 | 0.00 | 0.00 | 70 | 1018.5 |
| 20260905201542 | 28 | 179 | 3.2 | 6.4 | 0.00 | 0.00 | 0.00 | 70 | 1018.5 |
| 20260905201019 | 28 | 56 | 1.6 | 6.4 | 0.00 | 0.00 | 0.00 | 70 | 1018.5 |
| 20260905200523 | 28 | 179 | 1.6 | 4.8 | 0.00 | 0.00 | 0.00 | 70 | 1018.4 |
| 20260905200024 | 28 | 178 | 3.2 | 8.0 | 0.00 | 0.00 | 0.00 | 69 | 1018.4 |
| 20260905195517 | 28 | 172 | 1.6 | 3.2 | 0.00 | 0.00 | 0.00 | 69 | 1018.6 |
| 20260905195020 | 28 | 181 | 1.6 | 4.8 | 0.00 | 0.00 | 0.00 | 69 | 1018.5 |
| 20260905194525 | 28 | 188 | 3.2 | 6.4 | 0.00 | 0.00 | 0.00 | 69 | 1018.4 |
| 20260905194024 | 28 | 183 | 1.6 | 4.8 | 0.00 | 0.00 | 0.00 | 69 | 1018.5 |
| 20260905193519 | 28 | 166 | 0.0 | 3.2 | 0.00 | 0.00 | 0.00 | 69 | 1018.4 |
| 20260905193027 | 28 | 168 | 1.6 | 4.8 | 0.00 | 0.00 | 0.00 | 69 | 1018.4 |
| 20260905192541 | 28 | 180 | 1.6 | 6.4 | 0.00 | 0.00 | 0.00 | 69 | 1018.3 |
| 20260905192026 | 28 | 167 | 1.6 | 6.4 | 0.00 | 0.00 | 0.00 | 69 | 1018.3 |
| 20260905191520 | 28 | 174 | 1.6 | 6.4 | 0.00 | 0.00 | 0.00 | 69 | 1018.4 |
| 20260905191021 | 28 | 174 | 1.6 | 3.2 | 0.00 | 0.00 | 0.00 | 69 | 1018.3 |
| 20260905190519 | 28 | 185 | 1.6 | 3.2 | 0.00 | 0.00 | 0.00 | 69 | 1018.2 |
| 20260905190041 | 28 | 178 | 1.6 | 4.8 | 0.00 | 0.00 | 0.00 | 69 | 1018.2 |
| 20260905185523 | 28 | 170 | 1.6 | 6.4 | 0.00 | 0.00 | 0.00 | 69 | 1018.1 |
| 20260905185017 | 28 | 167 | 1.6 | 4.8 | 0.00 | 0.00 | 0.00 | 69 | 1018.1 |
| 20260905184518 | 28 | 159 | 1.6 | 4.8 | 0.00 | 0.00 | 0.00 | 69 | 1018.1 |
| 20260905184016 | 29 | 188 | 1.6 | 6.4 | 0.00 | 0.00 | 0.00 | 68 | 1018.1 |
| 20260905183522 | 29 | 182 | 1.6 | 4.8 | 0.00 | 0.00 | 0.00 | 68 | 1018.0 |
| 20260905183021 | 29 | 179 | 3.2 | 4.8 | 0.00 | 0.00 | 0.00 | 68 | 1017.9 |
| 20260905182518 | 29 | 181 | 1.6 | 8.0 | 0.00 | 0.00 | 0.00 | 68 | 1017.9 |
| 20260905182043 | 29 | 144 | 1.6 | 4.8 | 0.00 | 0.00 | 0.00 | 67 | 1017.9 |
| 20260905181525 | 29 | 203 | 1.6 | 4.8 | 0.00 | 0.00 | 0.00 | 67 | 1017.8 |
| 20260905181042 | 29 | 179 | 1.6 | 4.8 | 0.00 | 0.00 | 0.00 | 67 | 1017.7 |
| 20260905180517 | 29 | 179 | 1.6 | 4.8 | 0.00 | 0.00 | 0.00 | 67 | 1017.8 |
| 20260905180026 | 29 | 156 | 1.6 | 4.8 | 0.00 | 0.00 | 0.00 | 66 | 1017.6 |
| 20260905175523 | 29 | 171 | 1.6 | 3.2 | 0.00 | 0.00 | 0.00 | 66 | 1017.6 |
| 20260905175022 | 29 | 183 | 1.6 | 4.8 | 0.00 | 0.00 | 0.00 | 65 | 1017.6 |
| 20260905174524 | 30 | 212 | 3.2 | 8.0 | 0.00 | 0.00 | 0.00 | 65 | 1017.6 |
| 20260905174016 | 30 | 181 | 1.6 | 3.2 | 0.00 | 0.00 | 0.00 | 64 | 1017.6 |
| 20260905173520 | 30 | 190 | 3.2 | 6.4 | 0.00 | 0.00 | 0.00 | 64 | 1017.6 |
| 20260905173019 | 30 | 190 | 3.2 | 6.4 | 0.00 | 0.00 | 0.00 | 63 | 1017.5 |
| 20260905172540 | 30 | 186 | 3.2 | 6.4 | 0.00 | 0.00 | 0.00 | 63 | 1017.4 |
| 20260905172021 | 30 | 187 | 3.2 | 4.8 | 0.00 | 0.00 | 0.00 | 63 | 1017.3 |
| 20260905171519 | 30 | 194 | 3.2 | 6.4 | 0.00 | 0.00 | 0.00 | 63 | 1017.3 |
| 20260905171039 | 30 | 191 | 3.2 | 8.0 | 0.00 | 0.00 | 0.00 | 63 | 1017.3 |
| 20260905170524 | 30 | 197 | 3.2 | 6.4 | 0.00 | 0.00 | 0.00 | 63 | 1017.4 |
| 20260905170018 | 30 | 182 | 3.2 | 6.4 | 0.00 | 0.00 | 0.00 | 63 | 1017.4 |
| 20260905165520 | 30 | 171 | 3.2 | 6.4 | 0.00 | 0.00 | 0.00 | 63 | 1017.4 |
| 20260905165018 | 30 | 181 | 3.2 | 6.4 | 0.00 | 0.00 | 0.00 | 63 | 1017.4 |
| 20260905164526 | 30 | 171 | 1.6 | 6.4 | 0.00 | 0.00 | 0.00 | 62 | 1017.4 |
| 20260905164024 | 30 | 190 | 3.2 | 6.4 | 0.00 | 0.00 | 0.00 | 62 | 1017.4 |
| 20260905163605 | 30 | 188 | 3.2 | 6.4 | 0.00 | 0.00 | 0.00 | 62 | 1017.3 |
| 20260905163023 | 30 | 188 | 4.8 | 6.4 | 0.00 | 0.00 | 0.00 | 64 | 1017.3 |
| 20260905162517 | 30 | 185 | 3.2 | 8.0 | 0.00 | 0.00 | 0.00 | 66 | 1017.4 |
| 20260905162039 | 30 | 162 | 3.2 | 8.0 | 0.00 | 0.00 | 0.00 | 67 | 1017.4 |
| 20260905161523 | 30 | 188 | 3.2 | 8.0 | 0.00 | 0.00 | 0.00 | 68 | 1017.3 |
| 20260905161022 | 30 | 182 | 3.2 | 9.7 | 0.00 | 0.00 | 0.00 | 67 | 1017.4 |
| 20260905160520 | 30 | 161 | 3.2 | 6.4 | 0.00 | 0.00 | 0.00 | 67 | 1017.4 |
| 20260905160021 | 30 | 214 | 1.6 | 8.0 | 0.00 | 0.00 | 0.00 | 66 | 1017.4 |
| 20260905155520 | 30 | 175 | 3.2 | 6.4 | 0.00 | 0.00 | 0.00 | 66 | 1017.3 |
| 20260905155023 | 30 | 174 | 3.2 | 6.4 | 0.00 | 0.00 | 0.00 | 66 | 1017.4 |
| 20260905154543 | 30 | 183 | 1.6 | 6.4 | 0.00 | 0.00 | 0.00 | 66 | 1017.4 |
| 20260905154141 | 30 | 185 | 1.6 | 4.8 | 0.00 | 0.00 | 0.00 | 66 | 1017.4 |
| 20260905153558 | 30 | 6 | 4.8 | 9.7 | 0.00 | 0.00 | 0.00 | 65 | 1017.4 |
| 20260905153026 | 30 | 10 | 3.2 | 11.3 | 0.00 | 0.00 | 0.00 | 65 | 1017.3 |
| 20260905152524 | 30 | 4 | 3.2 | 11.3 | 0.00 | 0.00 | 0.00 | 65 | 1017.3 |
| 20260905152025 | 30 | 287 | 3.2 | 19.3 | 0.00 | 0.00 | 0.00 | 65 | 1017.4 |
| 20260905151515 | 30 | 153 | 1.6 | 6.4 | 0.00 | 0.00 | 0.00 | 65 | 1017.3 |
| 20260905151017 | 30 | 17 | 3.2 | 9.7 | 0.00 | 0.00 | 0.00 | 65 | 1017.3 |
| 20260905150643 | 30 | 359 | 6.4 | 19.3 | 0.00 | 0.00 | 0.00 | 65 | 1017.3 |
| 20260905150025 | 30 | 158 | 1.6 | 6.4 | 0.00 | 0.00 | 0.00 | 65 | 1017.3 |
| 20260905145541 | 30 | 354 | 8.0 | 17.7 | 0.00 | 0.00 | 0.00 | 65 | 1017.3 |
| 20260905145046 | 30 | 1 | 4.8 | 24.1 | 0.00 | 0.00 | 0.00 | 66 | 1017.3 |
| 20260905144522 | 30 | 359 | 8.0 | 19.3 | 0.00 | 0.00 | 0.00 | 66 | 1017.2 |
| 20260905144015 | 30 | 356 | 8.0 | 17.7 | 0.00 | 0.00 | 0.00 | 66 | 1017.3 |
| 20260905143600 | 30 | 348 | 11.3 | 24.1 | 0.00 | 0.00 | 0.00 | 66 | 1017.2 |
| 20260905143025 | 30 | 350 | 12.9 | 24.1 | 0.00 | 0.00 | 0.00 | 65 | 1017.3 |
| 20260905142517 | 30 | 349 | 8.0 | 22.5 | 0.00 | 0.00 | 0.00 | 65 | 1017.3 |
| 20260905142019 | 30 | 360 | 6.4 | 24.1 | 0.00 | 0.00 | 0.00 | 65 | 1017.5 |
| 20260905141516 | 30 | 360 | 8.0 | 17.7 | 0.00 | 0.00 | 0.00 | 66 | 1017.6 |
| 20260905141026 | 30 | 2 | 8.0 | 16.1 | 0.00 | 0.00 | 0.00 | 66 | 1017.5 |
| 20260905140546 | 30 | 352 | 12.9 | 20.9 | 0.00 | 0.00 | 0.00 | 66 | 1017.6 |
| 20260905140040 | 30 | 349 | 8.0 | 19.3 | 0.00 | 0.00 | 0.00 | 66 | 1017.6 |
| 20260905135517 | 30 | 353 | 11.3 | 25.7 | 0.00 | 0.00 | 0.00 | 66 | 1017.6 |
| 20260905135019 | 30 | 347 | 14.5 | 27.4 | 0.00 | 0.00 | 0.00 | 65 | 1017.5 |
| 20260905134517 | 30 | 6 | 8.0 | 19.3 | 0.00 | 0.00 | 0.00 | 65 | 1017.6 |
| 20260905134022 | 30 | 352 | 8.0 | 14.5 | 0.00 | 0.00 | 0.00 | 65 | 1017.6 |
| 20260905133516 | 30 | 2 | 6.4 | 17.7 | 0.00 | 0.00 | 0.00 | 65 | 1017.6 |
| 20260905133026 | 30 | 345 | 11.3 | 20.9 | 0.00 | 0.00 | 0.00 | 65 | 1017.6 |
| 20260905132526 | 30 | 355 | 9.7 | 25.7 | 0.00 | 0.00 | 0.00 | 64 | 1017.6 |
| 20260905132019 | 30 | 348 | 8.0 | 16.1 | 0.00 | 0.00 | 0.00 | 64 | 1017.8 |
| 20260905131523 | 30 | 355 | 11.3 | 22.5 | 0.00 | 0.00 | 0.00 | 64 | 1017.8 |
| 20260905131022 | 30 | 350 | 9.7 | 19.3 | 0.00 | 0.00 | 0.00 | 64 | 1017.9 |
| 20260905130519 | 30 | 356 | 9.7 | 20.9 | 0.00 | 0.00 | 0.00 | 64 | 1017.8 |
| 20260905130020 | 30 | 354 | 8.0 | 19.3 | 0.00 | 0.00 | 0.00 | 63 | 1017.9 |
| 20260905125541 | 30 | 355 | 11.3 | 24.1 | 0.00 | 0.00 | 0.00 | 63 | 1018.0 |
| 20260905125015 | 30 | 12 | 6.4 | 24.1 | 0.00 | 0.00 | 0.00 | 63 | 1018.0 |
| 20260905124526 | 30 | 353 | 8.0 | 16.1 | 0.00 | 0.00 | 0.00 | 64 | 1017.8 |
| 20260905124037 | 30 | 354 | 14.5 | 22.5 | 0.00 | 0.00 | 0.00 | 63 | 1018.0 |
| 20260905123516 | 31 | 355 | 8.0 | 20.9 | 0.00 | 0.00 | 0.00 | 62 | 1018.1 |
| 20260905123018 | 31 | 347 | 11.3 | 17.7 | 0.00 | 0.00 | 0.00 | 61 | 1018.1 |
| 20260905122545 | 31 | 346 | 12.9 | 22.5 | 0.00 | 0.00 | 0.00 | 60 | 1017.9 |
| 20260905122023 | 31 | 359 | 8.0 | 16.1 | 0.00 | 0.00 | 0.00 | 59 | 1017.9 |
| 20260905121520 | 31 | 23 | 8.0 | 14.5 | 0.00 | 0.00 | 0.00 | 60 | 1018.0 |
| 20260905121022 | 31 | 345 | 11.3 | 19.3 | 0.00 | 0.00 | 0.00 | 59 | 1018.0 |
| 20260905120518 | 31 | 353 | 6.4 | 20.9 | 0.00 | 0.00 | 0.00 | 60 | 1018.0 |
| 20260905120024 | 31 | 348 | 8.0 | 22.5 | 0.00 | 0.00 | 0.00 | 61 | 1018.1 |
| 20260905115527 | 31 | 353 | 9.7 | 20.9 | 0.00 | 0.00 | 0.00 | 60 | 1018.1 |
| 20260905115021 | 31 | 353 | 12.9 | 19.3 | 0.00 | 0.00 | 0.00 | 60 | 1018.2 |
| 20260905114537 | 31 | 350 | 9.7 | 19.3 | 0.00 | 0.00 | 0.00 | 60 | 1018.3 |
| 20260905114046 | 31 | 0 | 6.4 | 17.7 | 0.00 | 0.00 | 0.00 | 60 | 1018.3 |
| 20260905113525 | 31 | 352 | 8.0 | 17.7 | 0.00 | 0.00 | 0.00 | 60 | 1018.4 |
| 20260905113025 | 31 | 348 | 9.7 | 17.7 | 0.00 | 0.00 | 0.00 | 59 | 1018.3 |
| 20260905112517 | 31 | 349 | 8.0 | 19.3 | 0.00 | 0.00 | 0.00 | 58 | 1018.3 |
| 20260905112025 | 32 | 354 | 9.7 | 20.9 | 0.00 | 0.00 | 0.00 | 58 | 1018.4 |
| 20260905111520 | 32 | 338 | 4.8 | 14.5 | 0.00 | 0.00 | 0.00 | 58 | 1018.4 |
| 20260905111024 | 31 | 354 | 3.2 | 9.7 | 0.00 | 0.00 | 0.00 | 58 | 1018.4 |
| 20260905110521 | 31 | 353 | 8.0 | 22.5 | 0.00 | 0.00 | 0.00 | 58 | 1018.4 |
| 20260905110039 | 31 | 336 | 3.2 | 11.3 | 0.00 | 0.00 | 0.00 | 60 | 1018.3 |
| 20260905105523 | 31 | 352 | 9.7 | 20.9 | 0.00 | 0.00 | 0.00 | 60 | 1018.2 |
| 20260905105108 | 31 | 9 | 6.4 | 19.3 | 0.00 | 0.00 | 0.00 | 60 | 1018.2 |
| 20260905104516 | 31 | 349 | 8.0 | 20.9 | 0.00 | 0.00 | 0.00 | 61 | 1018.3 |
| 20260905104102 | 31 | 358 | 9.7 | 20.9 | 0.00 | 0.00 | 0.00 | 61 | 1018.3 |
| 20260905103524 | 31 | 355 | 4.8 | 16.1 | 0.00 | 0.00 | 0.00 | 61 | 1018.3 |
| 20260905103017 | 31 | 352 | 9.7 | 17.7 | 0.00 | 0.00 | 0.00 | 61 | 1018.3 |
| 20260905102517 | 31 | 1 | 6.4 | 20.9 | 0.00 | 0.00 | 0.00 | 61 | 1018.2 |
| 20260905102024 | 31 | 20 | 4.8 | 12.9 | 0.00 | 0.00 | 0.00 | 61 | 1018.3 |
| 20260905101516 | 31 | 9 | 6.4 | 20.9 | 0.00 | 0.00 | 0.00 | 61 | 1018.4 |
| 20260905101021 | 31 | 2 | 8.0 | 16.1 | 0.00 | 0.00 | 0.00 | 61 | 1018.4 |
| 20260905100526 | 31 | 353 | 9.7 | 16.1 | 0.00 | 0.00 | 0.00 | 61 | 1018.3 |
| 20260905100029 | 31 | 21 | 6.4 | 14.5 | 0.00 | 0.00 | 0.00 | 61 | 1018.2 |
| 20260905095520 | 31 | 358 | 4.8 | 11.3 | 0.00 | 0.00 | 0.00 | 61 | 1018.3 |
| 20260905095020 | 31 | 8 | 6.4 | 17.7 | 0.00 | 0.00 | 0.00 | 61 | 1018.4 |
| 20260905094524 | 31 | 345 | 6.4 | 16.1 | 0.00 | 0.00 | 0.00 | 61 | 1018.4 |
| 20260905094024 | 31 | 1 | 8.0 | 22.5 | 0.00 | 0.00 | 0.00 | 61 | 1018.3 |
| 20260905093605 | 31 | 358 | 6.4 | 25.7 | 0.00 | 0.00 | 0.00 | 61 | 1018.3 |
| 20260905093045 | 31 | 11 | 6.4 | 14.5 | 0.00 | 0.00 | 0.00 | 61 | 1018.4 |
| 20260905092521 | 31 | 1 | 6.4 | 14.5 | 0.00 | 0.00 | 0.00 | 61 | 1018.4 |
| 20260905092020 | 31 | 348 | 6.4 | 12.9 | 0.00 | 0.00 | 0.00 | 62 | 1018.4 |
| 20260905091525 | 30 | 2 | 4.8 | 12.9 | 0.00 | 0.00 | 0.00 | 63 | 1018.4 |
| 20260905091025 | 30 | 354 | 9.7 | 17.7 | 0.00 | 0.00 | 0.00 | 62 | 1018.4 |
| 20260905090518 | 31 | 346 | 11.3 | 24.1 | 0.00 | 0.00 | 0.00 | 62 | 1018.4 |
| 20260905090022 | 30 | 25 | 3.2 | 11.3 | 0.00 | 0.00 | 0.00 | 63 | 1018.5 |
| 20260905085523 | 30 | 359 | 8.0 | 14.5 | 0.00 | 0.00 | 0.00 | 63 | 1018.4 |
| 20260905085018 | 30 | 354 | 4.8 | 11.3 | 0.00 | 0.00 | 0.00 | 64 | 1018.4 |
| 20260905084521 | 30 | 1 | 6.4 | 12.9 | 0.00 | 0.00 | 0.00 | 64 | 1018.4 |
| 20260905084020 | 30 | 355 | 11.3 | 20.9 | 0.00 | 0.00 | 0.00 | 64 | 1018.5 |
| 20260905083526 | 30 | 353 | 8.0 | 14.5 | 0.00 | 0.00 | 0.00 | 65 | 1018.4 |
| 20260905083016 | 30 | 356 | 6.4 | 17.7 | 0.00 | 0.00 | 0.00 | 66 | 1018.3 |
| 20260905082541 | 30 | 350 | 8.0 | 19.3 | 0.00 | 0.00 | 0.00 | 66 | 1018.3 |
| 20260905082030 | 30 | 342 | 9.7 | 19.3 | 0.00 | 0.00 | 0.00 | 65 | 1018.3 |
| 20260905081518 | 30 | 2 | 6.4 | 17.7 | 0.00 | 0.00 | 0.00 | 66 | 1018.4 |
| 20260905081025 | 30 | 1 | 6.4 | 12.9 | 0.00 | 0.00 | 0.00 | 66 | 1018.3 |
| 20260905080526 | 30 | 356 | 6.4 | 17.7 | 0.00 | 0.00 | 0.00 | 66 | 1018.3 |